Location: Bougoudala
(13.2282°N, 4.9477°W)
Time: 05:55:03
(UTC+00:00)

SWIFT - Pass Details

Date: 29 January 2020
Orbit: 545 x 561 km, 20.6° (Epoch: 26 February)

Event Time Altitude Azimuth Distance (km) Brightness Sun altitude
Rises 19:34:46 0° 288° (WNW) 2,686 6.8 -18.5°
Reaches altitude 10° 19:37:03 10° 290° (WNW) 1,795 5.7 -19.0°
Maximum altitude 19:41:13 75° 16° (NNE) 562 2.2 -20.0°
Enters shadow 19:41:53 59° 79° (E) 627 2.2 -20.2°
